STARLINK-5227 (54181 NORAD) Tracking and Keplerian Element Data

This shows tracking and keplerian element data for the satellite.

Feedback or suggestion? Click here.




ElementValue
Catalog54181
NameSTARLINK-5227
Epoch Orbit407
Epoch Day325.25001157
Epoch Year2022
RAAN24.105
Inclination53.2186
Eccentricity0.0003347
Argument of Perigee14.6382
Mean Anonmoly9.8041
Mean Motion15.73178416
Decay Rate0.00030733
L11 54181U 22141AA 22325.25001157 .00030733 00000+0 22276-3 0 9991
L22 54181 53.2186 24.1050 0003347 14.6382 9.8041 15.73178416 4075



Live tracking and technical data element details for STARLINK-5227 (NORAD 54181). STARLINK-5227 can be tracked NOW for your location showing map with azimuth and elevation plus other details from your city location.







IsCatalogInMostPopularTable: catalog: 54181, numindb: 8
Update: records affected: 1



GetName: 54181 STARLINK-5227

Hit Count: updated at: Sun, 04 Dec 2022 22:30:54 GMT